Location: ??????
(42.0089°N, 44.3281°E)
Time: 17:57:05
(UTC+00:00)

USA 267 - Pass Details

Date: 02 June 2022
Orbit: 1101 x 1106 km, 123.0° (Epoch: 28 June)

Event Time Altitude Azimuth Distance (km) Brightness Sun altitude
Rises 22:30:28 0° 135° (SE) 3,906 5.9 -22.5°
Reaches altitude 10° 22:32:57 10° 136° (SE) 2,951 5.3 -22.3°
Maximum altitude 22:39:28 79° 223° (SW) 1,125 3.1 -21.8°
Drops below altitude 10° 22:46:02 10° 310° (NW) 2,964 5.7 -21.3°
Sets 22:48:32 0° 312° (NW) 3,924 6.4 -21.1°
